Location: Kaltenbach
(49.2000°N, 7.7500°E)
Time: 11:18:06
(UTC+00:00)

ARGOS - Pass Details

Date: 24 January 2020
Orbit: 821 x 834 km, 98.5° (Epoch: 18 February)

Event Time Altitude Azimuth Distance (km) Brightness Sun altitude
Exits shadow 18:02:01 26° 53° (NE) 1,574 4.1 -17.8°
Drops below altitude 10° 18:06:02 10° 5° (N) 2,444 5.5 -18.4°
Sets 18:08:43 0° 354° (N) 3,385 6.3 -18.9°
